Terminal Aerodrome Forecast
Issued by NWS Blacksburg, VA

Current Version | Previous Version | Text Only | Print | Product List | Glossary Off
Versions: 1 2 3 4 5 6 7 8 9 10 11 12 13 14 15 16 17 18 19 20 21 22 23 24 25 26 27 28

000
FTUS41 KRNK 020533
TAFBLF
TAF
KBLF 020533Z 0206/0306 28009KT P6SM SKC
      TEMPO 0206/0207 BKN015
     FM020700 30006KT 4SM BR SCT007 BKN012
     FM021400 30007KT P6SM SCT045
     FM030000 VRB03KT P6SM SKC
      AMD NOT SKED=

USA.gov is the U.S. government's official web portal to all federal, state and local government web resources and services.